Date String (YYYY-MM-DD hh:mm:ss) UTC,Instrument flags,Ambient pressure (hPa),Sample flow (lpm),Bypass flow (lpm),Sample temperature (°C),Ambient temperature (°C),ASC tube jacket temperature (°C),LED temperature (°C),Box temperature (°C),Sample RH (%),Span deviation,Mass concentration (μg/m³),Mass concentration (μg/m³),Mass concentration (μg/m³)
DateTimeUTC,F1_M11,P_M11,Q1_M11,Q2_M11,T1_M11,T2_M11,T3_M11,T4_M11,T5_M11,U1_M11,ZSPAN_M11,X0_M11,X2_M11,X1_M11
2021-10-18 18:00:00,,0821.4,5.00,0.00,30.5,26.7,00.0,39.7,31.7,12.1,0002.1,0012.23,0005.66,0004.70
2021-10-18 18:01:00,,0821.4,5.02,0.00,30.4,26.6,00.0,39.6,31.6,12.3,0001.3,0011.68,0005.73,0004.72
2021-10-18 18:02:00,,0821.4,4.99,0.00,30.3,27.0,00.0,39.6,31.7,12.3,-000.4,0011.53,0005.80,0004.72
2021-10-18 18:03:00,,0821.4,5.01,0.00,30.3,27.5,00.0,39.5,31.8,12.3,0001.5,0012.27,0005.89,0004.74
2021-10-18 18:04:00,,0821.4,5.00,0.00,30.2,27.9,00.0,39.5,31.8,12.3,0000.1,0012.84,0005.93,0004.75
2021-10-18 18:05:00,,0821.4,5.01,0.00,30.3,28.2,00.0,39.4,31.9,12.2,0000.6,0013.16,0005.92,0004.74
2021-10-18 18:06:00,,0821.4,5.00,0.00,30.3,28.5,00.0,39.4,32.0,12.3,0000.8,0013.25,0005.84,0004.72
2021-10-18 18:07:00,,0821.3,4.99,0.00,30.3,28.8,00.0,39.4,32.0,12.1,0000.3,0013.53,0005.79,0004.69
2021-10-18 18:08:00,,0821.3,5.00,0.00,30.3,29.0,00.0,39.4,32.1,12.2,-000.3,0014.38,0005.84,0004.68
2021-10-18 18:09:00,,0821.2,5.01,0.00,30.4,29.1,00.0,39.4,32.1,12.2,0000.1,0014.64,0005.82,0004.64
2021-10-18 18:10:00,,0821.2,4.99,0.00,30.4,29.3,00.0,39.4,32.2,12.3,0000.6,0014.91,0005.83,0004.62
2021-10-18 18:11:00,,0821.2,5.00,0.00,30.4,29.4,00.0,39.4,32.2,12.0,0002.0,0014.87,0005.83,0004.61
2021-10-18 18:12:00,,0821.2,5.00,0.00,30.5,29.5,00.0,39.4,32.2,12.0,0002.8,0014.72,0005.77,0004.58
2021-10-18 18:13:00,,0821.2,5.00,0.00,30.5,29.6,00.0,39.5,32.3,12.7,0003.1,0015.47,0005.79,0004.59
2021-10-18 18:14:00,,0821.2,4.99,0.00,30.5,29.6,00.0,39.5,32.3,13.1,0002.3,0017.21,0005.89,0004.64
2021-10-18 18:15:00,,0821.2,4.99,0.00,30.6,29.7,00.0,39.5,32.4,13.2,0001.6,0018.47,0006.03,0004.72
2021-10-18 18:16:00,,0821.2,5.02,0.00,30.6,29.7,00.0,39.5,32.4,13.1,0002.0,0019.53,0006.16,0004.81
2021-10-18 18:17:00,,0821.2,5.00,0.00,30.6,29.5,00.0,39.5,32.4,13.4,0000.6,0021.24,0006.41,0004.93
2021-10-18 18:18:00,,0821.2,5.00,0.00,30.6,27.7,00.0,39.5,32.0,13.3,0001.5,0022.52,0006.72,0005.06
2021-10-18 18:19:00,,0821.1,4.99,0.00,30.4,26.2,00.0,39.5,31.5,13.2,0000.3,0023.28,0006.94,0005.17
2021-10-18 18:20:00,,0821.1,5.02,0.00,30.3,26.5,00.0,39.5,31.5,13.2,-000.2,0024.00,0007.13,0005.26
2021-10-18 18:21:00,,0821.1,5.00,0.00,30.2,26.9,00.0,39.4,31.6,13.3,0000.6,0024.66,0007.29,0005.33
2021-10-18 18:22:00,,0821.1,5.00,0.00,30.1,27.4,00.0,39.4,31.7,13.0,0001.8,0025.77,0007.39,0005.39
2021-10-18 18:23:00,,0821.1,4.99,0.00,30.1,27.8,00.0,39.3,31.7,13.1,0002.4,0026.62,0007.50,0005.44
2021-10-18 18:24:00,,0821.1,5.00,0.00,30.1,28.2,00.0,39.3,31.8,13.1,0003.3,0027.49,0007.61,0005.46
2021-10-18 18:25:00,,0821.0,5.00,0.00,30.1,28.5,00.0,39.3,31.9,12.5,0003.2,0025.35,0007.54,0005.39
2021-10-18 18:26:00,,0821.0,5.00,0.00,30.2,28.7,00.0,39.3,31.9,12.8,0003.4,0023.35,0007.37,0005.27
2021-10-18 18:27:00,,0821.0,5.01,0.00,30.2,28.9,00.0,39.3,32.0,13.0,0004.5,0022.28,0007.23,0005.17
2021-10-18 18:28:00,,0821.0,5.00,0.00,30.2,29.1,00.0,39.3,32.0,12.9,0005.4,0021.03,0007.02,0005.04
2021-10-18 18:29:00,,0820.9,4.99,0.00,30.3,29.2,00.0,39.3,32.1,12.2,0004.5,0019.79,0006.63,0004.87
2021-10-18 18:30:00,,0820.9,5.00,0.00,30.3,29.3,00.0,39.3,32.1,12.1,0004.5,0018.67,0006.31,0004.68
2021-10-18 18:31:00,,0820.9,5.00,0.00,30.3,29.4,00.0,39.3,32.1,12.2,0004.6,0017.70,0005.99,0004.51
2021-10-18 18:32:00,,0820.9,5.00,0.00,30.4,29.5,00.0,39.3,32.2,12.7,0002.2,0017.22,0005.74,0004.38
2021-10-18 18:33:00,,0820.8,5.00,0.00,30.4,29.5,00.0,39.4,32.2,12.7,-000.1,0016.77,0005.56,0004.28
2021-10-18 18:34:00,,0820.8,5.01,0.00,30.5,29.6,00.0,39.4,32.3,12.4,-001.1,0016.11,0005.40,0004.18
2021-10-18 18:35:00,,0820.8,4.99,0.00,30.5,29.7,00.0,39.4,32.4,11.9,-001.1,0014.63,0005.14,0004.05
2021-10-18 18:36:00,,0820.8,5.00,0.00,30.6,29.7,00.0,39.4,32.4,11.4,-001.6,0014.77,0004.96,0003.94
2021-10-18 18:37:00,,0820.9,5.00,0.00,30.5,28.1,00.0,39.4,32.0,11.3,-000.6,0015.54,0004.84,0003.84
2021-10-18 18:38:00,,0820.8,4.99,0.00,30.3,26.3,00.0,39.4,31.4,11.5,-003.0,0015.18,0004.73,0003.73
2021-10-18 18:39:00,,0820.8,5.00,0.00,30.2,26.4,00.0,39.4,31.4,11.6,-001.1,0014.50,0004.57,0003.61
2021-10-18 18:40:00,,0820.8,5.01,0.00,30.1,26.8,00.0,39.3,31.5,11.6,0000.0,0013.98,0004.46,0003.52
2021-10-18 18:41:00,,0820.8,5.00,0.00,30.1,27.3,00.0,39.3,31.6,11.5,0000.0,0013.29,0004.38,0003.46
2021-10-18 18:42:00,,0820.8,4.99,0.00,30.0,27.7,00.0,39.2,31.7,11.3,0000.0,0013.34,0004.35,0003.40
2021-10-18 18:43:00,,0820.8,5.00,0.00,30.1,28.1,00.0,39.2,31.7,11.2,0000.0,0013.06,0004.27,0003.31
2021-10-18 18:44:00,,0820.9,5.01,0.00,30.1,28.4,00.0,39.2,31.8,11.1,0000.0,0012.18,0004.20,0003.23
2021-10-18 18:45:00,,0820.9,4.99,0.00,30.1,28.6,00.0,39.2,31.9,11.2,0000.0,0011.58,0004.08,0003.14
2021-10-18 18:46:00,,0820.9,5.01,0.00,30.1,28.9,00.0,39.2,31.9,11.2,0000.0,0011.23,0003.99,0003.04
2021-10-18 18:47:00,,0820.8,5.00,0.00,30.2,29.0,00.0,39.2,32.0,11.1,0000.0,0011.48,0003.88,0002.96
2021-10-18 18:48:00,,0820.8,5.00,0.00,30.2,29.2,00.0,39.2,32.0,11.0,0000.0,0010.71,0003.84,0002.90
2021-10-18 18:49:00,,0820.8,5.00,0.00,30.3,29.3,00.0,39.2,32.1,11.2,0000.0,0010.63,0003.84,0002.86
2021-10-18 18:50:00,,0820.7,4.99,0.00,30.3,29.4,00.0,39.3,32.1,11.2,0000.0,0010.52,0003.82,0002.83
2021-10-18 18:51:00,,0820.7,4.99,0.00,30.3,29.5,00.0,39.3,32.2,11.1,0000.0,0011.19,0003.88,0002.81
2021-10-18 18:52:00,,0820.7,5.00,0.00,30.4,29.6,00.0,39.3,32.2,11.4,0000.0,0012.69,0003.92,0002.79
2021-10-18 18:53:00,,0820.7,5.01,0.00,30.4,29.6,00.0,39.3,32.3,11.3,0000.0,0013.30,0003.91,0002.80
2021-10-18 18:54:00,,0820.7,4.99,0.00,30.5,29.7,00.0,39.4,32.3,11.0,0000.0,0013.70,0003.91,0002.83
2021-10-18 18:55:00,,0820.6,4.99,0.00,30.5,29.7,00.0,39.4,32.4,11.1,0000.0,0013.66,0003.88,0002.84
2021-10-18 18:56:00,,0820.6,5.00,0.00,30.5,28.5,00.0,39.4,32.1,11.2,0000.0,0014.39,0003.95,0002.86
2021-10-18 18:57:00,,0820.6,5.00,0.00,30.3,26.4,00.0,39.4,31.5,11.5,0000.0,0014.66,0004.01,0002.93
2021-10-18 18:58:00,,0820.6,5.00,0.00,30.2,26.2,00.0,39.3,31.4,11.5,0000.0,0014.24,0004.10,0002.98
2021-10-18 18:59:00,,0820.6,5.01,0.00,30.1,26.6,00.0,39.3,31.4,11.6,0000.0,0014.43,0004.18,0003.02
